This is the latest recevied weather packets stored in our database for station/object WX9WTF. If no packets are shown the sender has not sent any weather packets the latest 1 day(s).
| Time | Temp. | Humidity | Pressure | Rain* | Wind** | Luminosity | Snow |
|---|---|---|---|---|---|---|---|
| 1777988018 | 9.44° C | 81% | 1012.2 hPa | 1.78 mm | 1.79 m/s, 73° | 9 W/m² | - |
| 1777987713 | 10° C | 80% | 1012.1 hPa | 0 mm | 2.24 m/s, 52° | 15 W/m² | - |
| 1777987411 | 10° C | 79% | 1012 hPa | 0 mm | 1.34 m/s, 10° | 16 W/m² | - |
| 1777987108 | 9.44° C | 79% | 1012.2 hPa | 0 mm | 2.68 m/s, 46° | 11 W/m² | - |
| 1777986805 | 9.44° C | 80% | 1011.2 hPa | 0 mm | 3.13 m/s, 34° | 14 W/m² | - |
| 1777986503 | 9.44° C | 82% | 1010.4 hPa | 0 mm | 2.68 m/s, 60° | 18 W/m² | - |
| 1777986201 | 9.44° C | 83% | 1010.3 hPa | 0 mm | 3.58 m/s, 42° | 9 W/m² | - |
| 1777985898 | 9.44° C | 85% | 1010 hPa | 0 mm | 2.68 m/s, 69° | 26 W/m² | - |
| 1777985595 | 9.44° C | 86% | 1010.2 hPa | 1.27 mm | 2.24 m/s, 85° | 25 W/m² | - |
| 1777985291 | 9.44° C | 85% | 1010.3 hPa | 1.78 mm | 2.68 m/s, 52° | 29 W/m² | - |
| 1777984988 | 10° C | 83% | 1010 hPa | 1.27 mm | 0.89 m/s, 67° | 46 W/m² | - |
| 1777984684 | 10° C | 83% | 1009.8 hPa | 0 mm | 2.24 m/s, 80° | 39 W/m² | - |
| 1777984381 | 9.44° C | 82% | 1010.3 hPa | 0 mm | 1.79 m/s, 73° | 30 W/m² | - |
| 1777984077 | 9.44° C | 83% | 1010.6 hPa | 0 mm | 2.68 m/s, 33° | 11 W/m² | - |
| 1777983775 | 9.44° C | 83% | 1010.5 hPa | 0 mm | 4.02 m/s, 49° | 16 W/m² | - |
| 1777983471 | 9.44° C | 82% | 1010.4 hPa | 0 mm | 1.79 m/s, 64° | 23 W/m² | - |
| 1777983168 | 9.44° C | 82% | 1010.4 hPa | 0 mm | 2.68 m/s, 41° | 14 W/m² | - |
| 1777982864 | 9.44° C | 81% | 1010.1 hPa | 0 mm | 2.24 m/s, 48° | 9 W/m² | - |
| 1777982560 | 10° C | 81% | 1009.9 hPa | 0 mm | 2.24 m/s, 67° | 9 W/m² | - |
| 1777982259 | 10° C | 81% | 1010.1 hPa | 0 mm | 1.79 m/s, 79° | 9 W/m² | - |
| 1777981957 | 9.44° C | 80% | 1009.9 hPa | 0 mm | 2.24 m/s, 69° | 6 W/m² | - |
| 1777981654 | 9.44° C | 80% | 1009.9 hPa | 0 mm | 2.68 m/s, 56° | 10 W/m² | - |
| 1777981359 | 10° C | 80% | 1009.6 hPa | 0 mm | 2.24 m/s, 56° | 11 W/m² | - |
| 1777981047 | 9.44° C | 80% | 1010.1 hPa | 0 mm | 4.02 m/s, 47° | 3 W/m² | - |
| 1777980743 | 9.44° C | 81% | 1010.1 hPa | 0 mm | 1.34 m/s, 132° | 2 W/m² | - |
* Rain latest hour (hover to see other rain measurements)
** Current wind speed in m/s (hover to see current wind gust speed)